TGL6744 LFMN-LFLC

Flight info

Callsign TGL6744
Flight time 0h 46m
Altitude 30000
Route BODRU DCT KOTIT DCT ETREK Z48 PIMAK
Aircraft A20N/M-SDE2E3FGHIRWXY/LB1

Departure

Time 2026-05-06 12:16
Airport Nice-Côte d'Azur Airport (LFMN)

Arrival

Time 2026-05-06 13:02
Airport Clermont-Ferrand Auvergne airport (LFLC)
Time Latitude Longitude Altitude Speed Heading
2026-05-06 11:58 43.66082 7.20708 28 ft 0 kts 261°
2026-05-06 12:03 43.66083 7.20724 28 ft 2 kts 261°
2026-05-06 12:03 43.66085 7.20737 28 ft 2 kts 261°
2026-05-06 12:03 43.66090 7.20756 28 ft 2 kts 239°
2026-05-06 12:03 43.66099 7.20773 28 ft 2 kts 223°
2026-05-06 12:04 43.66111 7.20785 28 ft 2 kts 206°
2026-05-06 12:04 43.66125 7.20792 28 ft 2 kts 189°
2026-05-06 12:04 43.66140 7.20793 28 ft 1 kts 174°
2026-05-06 12:04 43.66146 7.20792 28 ft 1 kts 169°
2026-05-06 12:05 43.66148 7.20792 28 ft 0 kts 170°
2026-05-06 12:07 43.66147 7.20792 27 ft 0 kts 170°
2026-05-06 12:07 43.66146 7.20792 27 ft 0 kts 170°
2026-05-06 12:07 43.66140 7.20793 27 ft 1 kts 171°
2026-05-06 12:07 43.66120 7.20797 27 ft 3 kts 172°
2026-05-06 12:08 43.66092 7.20802 27 ft 4 kts 174°
2026-05-06 12:08 43.66059 7.20808 27 ft 5 kts 170°
2026-05-06 12:08 43.66021 7.20817 27 ft 6 kts 168°
2026-05-06 12:08 43.65984 7.20841 27 ft 5 kts 133°
2026-05-06 12:09 43.65972 7.20885 27 ft 5 kts 91°
2026-05-06 12:09 43.65991 7.20925 27 ft 6 kts 28°
2026-05-06 12:09 43.66025 7.20977 27 ft 8 kts 53°
2026-05-06 12:09 43.66067 7.21055 27 ft 10 kts 43°
2026-05-06 12:10 43.66125 7.21131 27 ft 11 kts 43°
2026-05-06 12:10 43.66186 7.21213 27 ft 12 kts 45°
2026-05-06 12:10 43.66250 7.21298 27 ft 12 kts 45°
2026-05-06 12:10 43.66313 7.21387 27 ft 12 kts 46°
2026-05-06 12:11 43.66370 7.21481 27 ft 12 kts 65°
2026-05-06 12:11 43.66343 7.21580 27 ft 11 kts 136°
2026-05-06 12:11 43.66338 7.21673 27 ft 11 kts 47°
2026-05-06 12:11 43.66394 7.21758 27 ft 12 kts 45°
2026-05-06 12:12 43.66462 7.21847 27 ft 13 kts 40°
2026-05-06 12:12 43.66532 7.21942 27 ft 14 kts 44°
2026-05-06 12:12 43.66605 7.22043 27 ft 15 kts 45°
2026-05-06 12:12 43.66682 7.22151 27 ft 15 kts 40°
2026-05-06 12:13 43.66766 7.22253 27 ft 16 kts 44°
2026-05-06 12:13 43.66813 7.22384 27 ft 15 kts 104°
2026-05-06 12:13 43.66746 7.22488 27 ft 14 kts 136°
2026-05-06 12:13 43.66673 7.22588 27 ft 14 kts 132°
2026-05-06 12:14 43.66600 7.22690 27 ft 14 kts 136°
2026-05-06 12:14 43.66546 7.22759 27 ft 3 kts 145°
2026-05-06 12:14 43.66521 7.22766 27 ft 4 kts 191°
2026-05-06 12:14 43.66492 7.22743 27 ft 5 kts 218°
2026-05-06 12:15 43.66460 7.22704 27 ft 6 kts 224°
2026-05-06 12:15 43.66412 7.22640 27 ft 26 kts 223°
2026-05-06 12:15 43.66088 7.22193 28 ft 102 kts 225°
2026-05-06 12:15 43.65432 7.21308 41 ft 159 kts 225°
2026-05-06 12:16 43.64694 7.20218 826 ft 152 kts 225°
2026-05-06 12:16 43.63947 7.19184 1574 ft 154 kts 224°
2026-05-06 12:16 43.63178 7.18158 2186 ft 163 kts 224°
2026-05-06 12:16 43.62325 7.17007 2737 ft 180 kts 225°
2026-05-06 12:17 43.61346 7.15828 3248 ft 201 kts 209°
2026-05-06 12:17 43.59926 7.15409 3887 ft 220 kts 174°
2026-05-06 12:17 43.58501 7.16156 4856 ft 224 kts 152°
2026-05-06 12:17 43.57182 7.17240 5725 ft 229 kts 152°
2026-05-06 12:18 43.55767 7.18196 6604 ft 230 kts 170°
2026-05-06 12:18 43.54215 7.18173 7534 ft 225 kts 196°
2026-05-06 12:18 43.52805 7.17607 8371 ft 226 kts 206°
2026-05-06 12:18 43.51576 7.16318 9242 ft 224 kts 235°
2026-05-06 12:19 43.50972 7.14397 10104 ft 226 kts 261°
2026-05-06 12:19 43.51086 7.12240 10957 ft 230 kts 282°
2026-05-06 12:19 43.51514 7.10137 11745 ft 235 kts 282°
2026-05-06 12:19 43.51932 7.08063 12381 ft 238 kts 282°
2026-05-06 12:20 43.52415 7.05901 12748 ft 241 kts 292°
2026-05-06 12:20 43.53468 7.04061 13002 ft 254 kts 319°
2026-05-06 12:20 43.55067 7.02797 13425 ft 276 kts 328°
2026-05-06 12:20 43.56847 7.01550 13889 ft 294 kts 328°
2026-05-06 12:21 43.58723 7.00234 14324 ft 312 kts 328°
2026-05-06 12:21 43.60717 6.98824 14737 ft 330 kts 328°
2026-05-06 12:21 43.62807 6.97339 15184 ft 346 kts 328°
2026-05-06 12:21 43.64977 6.95795 15889 ft 352 kts 328°
2026-05-06 12:22 43.67129 6.94261 16660 ft 356 kts 327°
2026-05-06 12:22 43.69334 6.92688 17434 ft 359 kts 327°
2026-05-06 12:22 43.71585 6.91077 18199 ft 362 kts 326°
2026-05-06 12:22 43.73809 6.89477 18913 ft 366 kts 326°
2026-05-06 12:23 43.76096 6.87833 19572 ft 371 kts 325°
2026-05-06 12:23 43.78387 6.86180 20198 ft 376 kts 325°
2026-05-06 12:23 43.80701 6.84511 20818 ft 380 kts 325°
2026-05-06 12:23 43.83060 6.82809 21498 ft 383 kts 324°
2026-05-06 12:24 43.85438 6.81093 22149 ft 386 kts 324°
2026-05-06 12:24 43.87828 6.79362 22705 ft 391 kts 323°
2026-05-06 12:24 43.90245 6.77614 23256 ft 396 kts 323°
2026-05-06 12:24 43.92662 6.75740 23881 ft 393 kts 318°
2026-05-06 12:25 43.94851 6.73589 24635 ft 384 kts 311°
2026-05-06 12:25 43.96856 6.71123 25346 ft 378 kts 306°
2026-05-06 12:25 43.98707 6.68593 25977 ft 378 kts 305°
2026-05-06 12:25 44.00567 6.66001 26605 ft 378 kts 305°
2026-05-06 12:26 44.02423 6.63415 27257 ft 377 kts 305°
2026-05-06 12:26 44.04292 6.60819 27916 ft 377 kts 305°
2026-05-06 12:26 44.06142 6.58251 28511 ft 377 kts 305°
2026-05-06 12:26 44.08001 6.55676 29019 ft 379 kts 305°
2026-05-06 12:27 44.09877 6.53068 29498 ft 382 kts 305°
2026-05-06 12:27 44.11766 6.50448 29842 ft 385 kts 305°
2026-05-06 12:27 44.15602 6.45113 29889 ft 390 kts 305°
2026-05-06 12:28 44.19436 6.39783 29888 ft 389 kts 305°
2026-05-06 12:28 44.22981 6.34191 29893 ft 381 kts 299°
2026-05-06 12:29 44.26297 6.28465 29894 ft 381 kts 298°
2026-05-06 12:29 44.29625 6.22694 29890 ft 381 kts 298°
2026-05-06 12:30 44.32940 6.16939 29891 ft 381 kts 299°
2026-05-06 12:30 44.36248 6.11191 29894 ft 382 kts 299°
2026-05-06 12:31 44.39552 6.05438 29895 ft 381 kts 299°
2026-05-06 12:31 44.42873 5.99643 29898 ft 381 kts 299°
2026-05-06 12:32 44.46161 5.93897 29896 ft 381 kts 299°
2026-05-06 12:32 44.49492 5.88053 29900 ft 381 kts 299°
2026-05-06 12:33 44.52793 5.82259 29897 ft 381 kts 299°
2026-05-06 12:33 44.56100 5.76437 29896 ft 381 kts 299°
2026-05-06 12:34 44.59392 5.70630 29892 ft 381 kts 299°
2026-05-06 12:34 44.62712 5.64774 29894 ft 381 kts 300°
2026-05-06 12:35 44.66007 5.58954 29894 ft 382 kts 300°
2026-05-06 12:35 44.69291 5.53134 29890 ft 383 kts 300°
2026-05-06 12:36 44.72594 5.47266 29890 ft 382 kts 300°
2026-05-06 12:36 44.75876 5.41425 29892 ft 383 kts 301°
2026-05-06 12:37 44.79171 5.35539 29890 ft 384 kts 301°
2026-05-06 12:37 44.82464 5.29657 29892 ft 383 kts 300°
2026-05-06 12:38 44.85759 5.23752 29884 ft 382 kts 300°
2026-05-06 12:38 44.89054 5.17833 29883 ft 384 kts 300°
2026-05-06 12:39 44.92337 5.11925 29875 ft 383 kts 300°
2026-05-06 12:39 44.95629 5.05985 29628 ft 387 kts 301°
2026-05-06 12:40 44.97298 5.02965 29049 ft 390 kts 301°
2026-05-06 12:40 44.98982 4.99909 28462 ft 392 kts 302°
2026-05-06 12:40 45.00655 4.96879 27880 ft 394 kts 302°
2026-05-06 12:40 45.02359 4.93790 27305 ft 395 kts 303°
2026-05-06 12:41 45.04042 4.90738 26763 ft 395 kts 303°
2026-05-06 12:41 45.05734 4.87666 26174 ft 397 kts 304°
2026-05-06 12:41 45.07399 4.84640 25569 ft 398 kts 304°
2026-05-06 12:41 45.09107 4.81531 24922 ft 399 kts 304°
2026-05-06 12:42 45.10825 4.78400 24334 ft 398 kts 305°
2026-05-06 12:42 45.12508 4.75333 23841 ft 393 kts 305°
2026-05-06 12:42 45.14172 4.72300 23375 ft 387 kts 305°
2026-05-06 12:42 45.15812 4.69304 22922 ft 382 kts 305°
2026-05-06 12:43 45.17410 4.66324 22480 ft 376 kts 303°
2026-05-06 12:43 45.18828 4.63251 22040 ft 370 kts 298°
2026-05-06 12:43 45.20043 4.60074 21588 ft 365 kts 294°
2026-05-06 12:43 45.21135 4.56827 21145 ft 361 kts 293°
2026-05-06 12:44 45.22175 4.53654 20714 ft 358 kts 293°
2026-05-06 12:44 45.23214 4.50478 20282 ft 354 kts 293°
2026-05-06 12:44 45.24244 4.47332 19855 ft 351 kts 294°
2026-05-06 12:44 45.25275 4.44189 19428 ft 347 kts 294°
2026-05-06 12:45 45.26288 4.41100 19009 ft 344 kts 294°
2026-05-06 12:45 45.27291 4.38034 18603 ft 341 kts 294°
2026-05-06 12:45 45.29279 4.31958 17812 ft 335 kts 293°
2026-05-06 12:46 45.30245 4.28998 17431 ft 333 kts 293°
2026-05-06 12:46 45.31219 4.26015 17044 ft 330 kts 293°
2026-05-06 12:46 45.32187 4.23043 16658 ft 328 kts 293°
2026-05-06 12:46 45.33137 4.20120 16280 ft 326 kts 294°
2026-05-06 12:47 45.34076 4.17231 15899 ft 323 kts 294°
2026-05-06 12:47 45.35018 4.14330 15538 ft 321 kts 293°
2026-05-06 12:47 45.35959 4.11427 15158 ft 319 kts 294°
2026-05-06 12:47 45.36879 4.08587 14785 ft 317 kts 293°
2026-05-06 12:48 45.37795 4.05759 14418 ft 314 kts 293°
2026-05-06 12:48 45.38799 4.03012 14040 ft 314 kts 302°
2026-05-06 12:48 45.40238 4.00639 13651 ft 314 kts 316°
2026-05-06 12:48 45.41990 3.98780 13204 ft 316 kts 324°
2026-05-06 12:49 45.43836 3.97062 12773 ft 316 kts 325°
2026-05-06 12:49 45.45684 3.95366 12369 ft 315 kts 325°
2026-05-06 12:49 45.47519 3.93677 11983 ft 313 kts 325°
2026-05-06 12:49 45.49326 3.92003 11603 ft 311 kts 325°
2026-05-06 12:50 45.51125 3.90328 11219 ft 309 kts 325°
2026-05-06 12:50 45.52937 3.88635 10841 ft 307 kts 325°
2026-05-06 12:50 45.54719 3.86967 10477 ft 305 kts 325°
2026-05-06 12:50 45.56483 3.85313 10148 ft 301 kts 325°
2026-05-06 12:51 45.58229 3.83676 9979 ft 290 kts 325°
2026-05-06 12:51 45.59906 3.82102 9909 ft 276 kts 325°
2026-05-06 12:51 45.61499 3.80605 9729 ft 273 kts 324°
2026-05-06 12:51 45.63079 3.79116 9412 ft 271 kts 324°
2026-05-06 12:52 45.64639 3.77648 9108 ft 269 kts 324°
2026-05-06 12:52 45.66199 3.76178 8897 ft 262 kts 324°
2026-05-06 12:52 45.67668 3.74738 8878 ft 247 kts 320°
2026-05-06 12:52 45.68917 3.73153 8726 ft 238 kts 312°
2026-05-06 12:53 45.70025 3.71421 8345 ft 240 kts 310°
2026-05-06 12:53 45.71134 3.69615 7977 ft 241 kts 309°
2026-05-06 12:53 45.72241 3.67810 7611 ft 241 kts 310°
2026-05-06 12:53 45.73344 3.66023 7251 ft 242 kts 310°
2026-05-06 12:54 45.74456 3.64223 6887 ft 242 kts 310°
2026-05-06 12:54 45.75571 3.62424 6519 ft 243 kts 310°
2026-05-06 12:54 45.76691 3.60619 6150 ft 242 kts 310°
2026-05-06 12:54 45.77804 3.58823 5873 ft 237 kts 310°
2026-05-06 12:55 45.78883 3.57085 5614 ft 233 kts 310°
2026-05-06 12:55 45.79946 3.55371 5377 ft 227 kts 310°
2026-05-06 12:55 45.80981 3.53703 5172 ft 220 kts 310°
2026-05-06 12:55 45.81877 3.51981 4966 ft 212 kts 289°
2026-05-06 12:56 45.82013 3.49952 4849 ft 198 kts 265°
2026-05-06 12:56 45.81847 3.48078 4853 ft 185 kts 262°
2026-05-06 12:56 45.81641 3.46267 4774 ft 183 kts 261°
2026-05-06 12:56 45.81436 3.44472 4553 ft 181 kts 262°
2026-05-06 12:57 45.81247 3.42730 4305 ft 174 kts 262°
2026-05-06 12:57 45.81073 3.41074 4069 ft 160 kts 262°
2026-05-06 12:57 45.80921 3.39579 3888 ft 147 kts 263°
2026-05-06 12:57 45.80776 3.38135 3703 ft 146 kts 262°
2026-05-06 12:58 45.80631 3.36681 3509 ft 145 kts 262°
2026-05-06 12:58 45.80488 3.35252 3311 ft 145 kts 262°
2026-05-06 12:58 45.80344 3.33812 3118 ft 144 kts 262°
2026-05-06 12:58 45.80202 3.32386 2922 ft 144 kts 261°
2026-05-06 12:59 45.80059 3.30953 2729 ft 144 kts 261°
2026-05-06 12:59 45.79916 3.29519 2538 ft 144 kts 261°
2026-05-06 12:59 45.79774 3.28099 2349 ft 144 kts 261°
2026-05-06 12:59 45.79633 3.26678 2156 ft 144 kts 261°
2026-05-06 13:00 45.79492 3.25260 1960 ft 145 kts 261°
2026-05-06 13:00 45.79365 3.23818 1765 ft 147 kts 263°
2026-05-06 13:00 45.79252 3.22334 1582 ft 151 kts 264°
2026-05-06 13:00 45.79122 3.20639 1505 ft 185 kts 258°
2026-05-06 13:01 45.78866 3.18876 1174 ft 178 kts 265°
2026-05-06 13:01 45.78688 3.17227 1072 ft 152 kts 266°
2026-05-06 13:01 45.78569 3.15964 1084 ft 102 kts 268°
2026-05-06 13:01 45.78488 3.15134 1095 ft 53 kts 270°
2026-05-06 13:02 45.78477 3.14948 1099 ft 0 kts 120°
2026-05-06 13:02 45.78477 3.14949 1099 ft 0 kts 120°
2026-05-06 13:03 45.78481 3.15026 1098 ft 18 kts 83°
2026-05-06 13:03 45.78574 3.15117 1094 ft 18 kts
2026-05-06 13:03 45.78711 3.15148 1091 ft 20 kts
2026-05-06 13:03 45.78804 3.15273 1086 ft 20 kts 85°
2026-05-06 13:04 45.78824 3.15478 1085 ft 20 kts 81°
2026-05-06 13:04 45.78846 3.15680 1084 ft 20 kts 81°
2026-05-06 13:04 45.78859 3.15790 1084 ft 8 kts 60°
2026-05-06 13:04 45.78907 3.15813 1084 ft 0 kts 356°